"Time","Temp","Dewpoint","Humidity","Pressure","Direction","Speed","Gust","Precip","PrecipRate"
"00:04:59","56.9","54.6","92","30.13","117","0.5","2.4","0.00","0.00"
"00:09:57","56.9","54.6","92","30.13","117","0.1","1.2","0.00","0.00"
"00:14:58","56.9","54.6","92","30.13","117","0","1.2","0.00","0.00"
"00:19:57","56.9","54.6","92","30.13","117","0","0","0.00","0.00"
"00:24:56","56.9","54.6","92","30.13","117","0","0","0.00","0.00"
"00:29:59","56.9","54.6","92","30.13","117","0","0","0.00","0.00"
"00:34:58","56.9","54.6","92","30.12","117","0","0","0.00","0.00"
"00:39:57","56.8","54.5","92","30.12","117","0","0","0.00","0.00"
"00:44:56","56.7","54.4","92","30.12","117","0","0","0.00","0.00"
"00:49:58","56.6","54.3","92","30.12","117","0","0","0.00","0.00"
"00:54:59","56.5","54.2","92","30.12","117","0","0","0.00","0.00"
"00:59:59","56.4","54.3","92.6","30.12","117","0","0","0.00","0.00"
"01:04:58","56.4","54.4","93","30.12","117","0","0","0.00","0.00"
"01:09:57","56.5","54.5","93","30.12","117","0","0","0.00","0.00"
"01:14:57","56.6","54.6","93","30.12","117","0","0","0.00","0.00"
"01:19:56","56.6","54.6","93","30.11","117","0","0","0.00","0.00"
"01:24:59","56.6","54.3","92","30.11","117","0","0","0.00","0.00"
"01:29:58","56.6","54.3","92","30.11","117","0","0","0.00","0.00"
"01:34:57","56.5","54.2","92","30.11","117","0","0","0.00","0.00"
"01:39:57","56.5","54.2","92","30.11","117","0","0","0.00","0.00"
"01:44:56","56.4","54.3","92.5","30.11","117","0","0","0.00","0.00"
"01:49:59","56.3","54.1","92.2","30.11","117","0","0","0.00","0.00"
"01:54:58","56.2","53.9","92","30.11","117","0","0","0.00","0.00"
"01:59:57","56.1","53.9","92.5","30.11","117","0","0","0.00","0.00"
"02:04:57","56.1","54.1","93","30.10","117","0","0","0.00","0.00"
"02:09:56","56","54","93","30.10","117","0","0","0.00","0.00"
"02:14:56","55.9","53.9","93","30.10","117","0","0","0.00","0.00"
"02:19:59","55.9","54","93.4","30.09","117","0","0","0.00","0.00"
"02:24:58","55.8","54.1","94","30.09","117","0","0","0.00","0.00"
"02:29:57","55.8","54.1","94","30.09","117","0","0","0.00","0.00"
"02:34:56","55.6","53.9","94","30.08","117","0","0","0.00","0.00"
"02:39:55","55.5","53.8","94","30.08","117","0","0","0.00","0.00"
"02:44:58","55.4","53.7","94","30.08","117","0","0","0.00","0.00"
"02:49:58","55.3","53.6","94","30.08","117","0","0","0.00","0.00"
"02:54:57","55.1","53.4","94","30.08","117","0","0","0.00","0.00"
"02:59:56","55","53.3","94","30.08","117","0","0","0.00","0.00"
"03:04:58","55","53.4","94.3","30.08","117","0","0","0.00","0.00"
"03:09:58","54.9","53.3","94.3","30.08","117","0","0","0.00","0.00"
"03:14:57","54.8","53.4","95","30.08","117","0","0","0.00","0.00"
"03:19:56","54.8","53.4","95","30.08","117","0","0","0.00","0.00"
"03:24:59","54.7","53.3","95","30.08","117","0","0","0.00","0.00"
"03:29:58","54.6","53.2","95","30.08","117","0","0","0.00","0.00"
"03:34:59","54.5","53.1","95","30.08","117","0","0","0.00","0.00"
"03:39:58","54.5","53.1","95","30.08","117","0","0","0.00","0.00"
"03:44:58","54.5","53.2","95.3","30.08","117","0","0","0.00","0.00"
"03:49:58","54.5","53.1","95","30.08","117","0","0","0.00","0.00"
"03:54:57","54.4","53","95","30.08","117","0","0","0.00","0.00"
"03:59:56","54.2","52.8","95","30.09","117","0","0","0.00","0.00"
"04:04:57","54.2","53","95.7","30.09","117","0","0","0.00","0.00"
"04:09:57","54.2","53.1","96","30.09","117","0","0","0.00","0.00"
"04:14:57","54.2","53.1","96","30.09","117","0","0","0.00","0.00"
"04:19:56","54.2","53.1","96","30.09","117","0","0","0.00","0.00"
"04:24:56","54.1","53","96","30.09","117","0","0","0.00","0.00"
"04:29:56","54","52.9","96","30.09","117","0","0","0.00","0.00"
"04:34:59","53.9","52.8","96","30.09","117","0","0","0.00","0.00"
"04:39:58","53.9","52.8","96","30.09","117","0","0","0.00","0.00"
"04:44:57","53.8","52.7","96","30.09","117","0","0","0.00","0.00"
"04:49:56","53.8","52.7","96","30.09","117","0","0","0.00","0.00"
"04:54:56","53.8","52.7","96","30.09","117","0","0","0.00","0.00"
"04:59:59","53.7","52.6","96","30.09","117","0","0","0.00","0.00"
"05:04:59","53.6","52.5","96","30.09","117","0","0","0.00","0.00"
"05:09:59","53.5","52.4","96","30.09","117","0","0","0.00","0.00"
"05:14:59","53.4","52.3","96","30.09","117","0","0","0.00","0.00"
"05:19:58","53.3","52.2","96","30.09","117","0","0","0.00","0.00"
"05:24:57","53.3","52.2","96","30.09","117","0","0","0.00","0.00"
"05:29:56","53.2","52.1","96","30.09","117","0","0","0.00","0.00"
"05:34:59","53.1","52","96","30.09","117","0","0","0.00","0.00"
"05:39:59","53","51.9","96","30.09","117","0","0","0.00","0.00"
"05:44:58","53","51.9","96","30.09","117","0","0","0.00","0.00"
"05:49:57","52.9","51.8","96","30.09","117","0","0","0.00","0.00"
"05:54:56","52.8","51.7","96","30.09","117","0","0","0.00","0.00"
"05:59:55","52.8","51.7","96","30.10","117","0","0","0.00","0.00"
"06:04:56","52.8","51.8","96.4","30.10","117","0","0","0.00","0.00"
"06:09:56","52.8","51.7","96","30.10","117","0","0","0.00","0.00"
"06:14:56","52.7","51.6","96","30.10","117","0","0","0.00","0.00"
"06:19:55","52.6","51.7","96.5","30.10","117","0","0","0.00","0.00"
"06:24:56","52.6","51.8","97","30.10","117","0","0","0.00","0.00"
"06:29:59","52.5","51.7","97","30.10","117","0","0","0.00","0.00"
"06:34:57","52.6","51.8","97","30.10","117","0","0","0.00","0.00"
"06:39:56","52.6","51.8","97","30.10","117","0","0","0.00","0.00"
"06:44:59","52.7","51.9","97","30.11","117","0","0","0.00","0.00"
"06:49:57","53","52.2","97","30.11","117","0","0","0.00","0.00"
"06:54:56","53.2","52.4","97","30.11","117","0","0","0.00","0.00"
"06:59:58","53.5","52.7","97","30.12","107","0","0","0.00","0.00"
"07:04:58","53.8","53","97","30.12","109","0","0","0.00","0.00"
"07:09:58","54","53.2","97","30.12","97","0","0","0.00","0.00"
"07:14:56","54.3","53.5","97","30.13","97","0","0","0.00","0.00"
"07:19:59","54.6","53.8","97","30.13","97","0","0","0.00","0.00"
"07:24:58","54.9","54.1","97","30.13","97","0","0","0.00","0.00"
"07:29:56","55.3","54.5","97","30.13","97","0","0","0.00","0.00"
"07:34:58","55.7","54.9","97","30.13","97","0","0","0.00","0.00"
"07:39:58","56.1","55.3","97","30.13","276","0","0","0.00","0.00"
"07:44:56","56.6","55.8","97","30.13","276","0","1.2","0.00","0.00"
"07:49:58","57.1","56.3","97","30.13","276","0","0","0.00","0.00"
"07:54:57","57.5","56.7","97","30.13","276","0","0","0.00","0.00"
"07:59:59","57.9","57.1","97","30.14","212","0","2.4","0.00","0.00"
"08:04:59","58.6","57.5","96.1","30.14","212","0.5","2.4","0.00","0.00"
"08:09:59","59.3","57.9","94.9","30.14","212","0","0","0.00","0.00"
"08:14:57","60","58","92.9","30.14","212","0.4","2.4","0.00","0.00"
"08:19:59","60.8","58.1","90.6","30.14","216","1.2","3.6","0.00","0.00"
"08:24:58","61.5","58.1","88.7","30.14","276","1.7","3.6","0.00","0.00"
"08:29:56","62","58.2","87.3","30.14","270","1.7","3.6","0.00","0.00"
"08:34:58","62.6","58.9","87.7","30.14","197","0.4","2.4","0.00","0.00"
"08:39:57","63.5","59.7","87.3","30.14","48","0","0","0.00","0.00"
"08:44:56","64.2","59.8","85.7","30.14","52","0.2","2.4","0.00","0.00"
"08:49:58","64.6","59.7","83.9","30.14","59","1.1","2.4","0.00","0.00"
"08:54:56","64.8","59.8","83.8","30.14","61","0.1","1.2","0.00","0.00"
"08:59:58","65.4","60.4","83.9","30.14","61","0.2","1.2","0.00","0.00"
"09:04:58","66.3","60.5","81.7","30.13","61","0.2","2.4","0.00","0.00"
"09:09:58","66.7","60.5","80.4","30.13","61","0.6","2.4","0.00","0.00"
"09:14:57","67.1","60.9","80.3","30.13","61","0","1.2","0.00","0.00"
"09:19:59","67.8","61.7","80.7","30.13","61","0","1.2","0.00","0.00"
"09:24:58","68.7","62.5","80.7","30.13","61","0.4","2.4","0.00","0.00"
"09:29:56","69.4","62.4","78.5","30.13","69","0.3","3.6","0.00","0.00"
"09:34:58","69.7","61.9","76.2","30.13","69","0.5","3.5","0.00","0.00"
"09:39:57","70","62.2","76.5","30.13","69","0.4","2.4","0.00","0.00"
"09:44:56","70.3","62.5","76.3","30.14","69","0.3","2.4","0.00","0.00"
"09:49:57","70.9","63","76.2","30.14","65","1.5","3.6","0.00","0.00"
"09:54:56","71.4","62.6","73.9","30.14","20","2.1","4.8","0.00","0.00"
"09:59:59","71.6","62.9","74","30.14","308","2.5","4.8","0.00","0.00"
"10:04:58","72.1","63.2","73.5","30.14","248","1.7","3.6","0.00","0.00"
"10:09:57","72.7","63.3","72.4","30.14","229","1.4","3.6","0.00","0.00"
"10:14:59","73.1","63.7","72.4","30.14","223","1.2","3.6","0.00","0.00"
"10:19:57","73.5","63.9","72","30.14","345","1.3","4.8","0.00","0.00"
"10:24:59","74.2","64.7","72.2","30.14","346","0.3","1.2","0.00","0.00"
"10:29:57","74.8","64.4","70.1","30.14","338","1.7","4.8","0.00","0.00"
"10:34:59","74.9","64","68.8","30.13","335","1.8","4.6","0.00","0.00"
"10:39:58","75","64.7","70.5","30.13","335","0.4","2.4","0.00","0.00"
"10:44:57","75.5","65","69.9","30.14","272","1.1","3.6","0.00","0.00"
"10:49:58","76.1","64.2","66.8","30.14","325","2.1","4.8","0.00","0.00"
"10:54:56","76.4","64.8","67.3","30.14","272","2","4.8","0.00","0.00"
"10:59:59","76.7","64.3","65.7","30.14","207","1.2","4.6","0.00","0.00"
"11:04:58","77","63.3","62.8","30.13","231","1.3","3.6","0.00","0.00"
"11:09:58","77.3","64.6","64.9","30.13","234","0.6","2.4","0.00","0.00"
"11:14:57","77.8","64.6","64","30.13","336","1.5","7.2","0.00","0.00"
"11:19:59","77.5","65.1","65.8","30.13","5","1.3","3.5","0.00","0.00"
"11:24:57","78.1","65.7","65.9","30.13","288","1.8","6","0.00","0.00"
"11:29:56","77.6","63","60.9","30.13","272","1.6","4.8","0.00","0.00"
"11:34:58","77.9","65","64.6","30.13","278","1.6","4.8","0.00","0.00"
"11:39:57","77.7","64.5","63.9","30.13","318","2.1","7.2","0.00","0.00"
"11:44:59","77.8","65.1","65","30.13","299","1.7","3.6","0.00","0.00"
"11:49:58","78.6","66.3","66.1","30.13","275","1.7","4.8","0.00","0.00"
"11:54:59","79","65.9","64.3","30.13","273","2","4.6","0.00","0.00"
"11:59:59","79.4","65.9","63.7","30.13","211","2","4.8","0.00","0.00"
"12:04:56","79.1","65.7","63.6","30.12","13","2.1","4.8","0.00","0.00"
"12:09:57","79.4","66.1","63.9","30.12","159","2.2","4.8","0.00","0.00"
"12:14:58","79.9","66.4","63.4","30.12","154","2.2","4.8","0.00","0.00"
"12:19:58","80.4","67.2","64.3","30.12","170","1.7","4.6","0.00","0.00"
"12:24:58","80.4","66.3","62.2","30.12","180","1.8","6","0.00","0.00"
"12:29:56","80.7","67.7","64.8","30.12","219","1.9","5.8","0.00","0.00"
"12:34:56","80.6","66","61.3","30.11","249","1.7","6","0.00","0.00"
"12:39:57","80.9","67.3","63.4","30.11","223","2.4","4.8","0.00","0.00"
"12:44:57","81.3","65.7","59.4","30.11","330","2.9","6","0.00","0.00"
"12:49:57","81.2","66.4","60.9","30.11","242","2.3","6","0.00","0.00"
"12:54:58","81.3","65.6","58.9","30.11","203","1.4","5.8","0.00","0.00"
"12:59:58","81.2","65.9","59.7","30.11","194","0.6","2.4","0.00","0.00"
"13:04:55","82.1","66.4","59.3","30.11","177","1.5","4.8","0.00","0.00"
"13:09:59","82","64.6","55.6","30.11","205","2.6","4.8","0.00","0.00"
"13:14:58","81.8","65.5","57.9","30.11","271","2.3","4.8","0.00","0.00"
"13:19:55","82","66.1","58.7","30.11","1","1.7","4.8","0.00","0.00"
"13:24:57","82.3","64.7","55.5","30.11","344","4.3","8.4","0.00","0.00"
"13:29:57","82.4","64.4","54.7","30.11","344","3.8","7.2","0.00","0.00"
"13:34:58","82.6","64.6","54.8","30.10","351","3.4","7.2","0.00","0.00"
"13:39:59","82.7","65.9","57.1","30.10","352","3.1","6","0.00","0.00"
"13:44:59","82.7","65","55.1","30.10","329","2.9","7.2","0.00","0.00"
"13:49:59","82.6","65.3","56.1","30.09","310","1.7","6.9","0.00","0.00"
"13:54:59","82.9","66.9","58.7","30.09","212","2.6","4.8","0.00","0.00"
"13:59:59","83.5","67","57.8","30.09","146","1.5","3.6","0.00","0.00"
"14:04:57","84","66","54.8","30.09","194","2.2","4.8","0.00","0.00"
"14:09:58","84.2","67","56.6","30.09","186","2.4","4.8","0.00","0.00"
"14:14:59","84.2","66","54.4","30.09","185","2.7","6","0.00","0.00"
"14:19:59","84.3","65.1","52.8","30.08","193","1.6","3.6","0.00","0.00"
"14:24:59","84.2","63.3","49.7","30.08","256","3.1","6","0.00","0.00"
"14:29:59","84.3","61.6","46.4","30.08","197","2.8","7.2","0.00","0.00"
"14:34:56","84.5","64.9","52","30.08","168","1.2","3.6","0.00","0.00"
"14:39:57","84.7","63.5","49.2","30.08","140","2.1","4.8","0.00","0.00"
"14:44:58","84.7","63.4","49.2","30.08","139","0.7","3.5","0.00","0.00"
"14:49:59","85.1","63.2","48.1","30.07","141","1.1","3.6","0.00","0.00"
"14:54:59","85.1","61.2","44.8","30.07","159","2.3","4.8","0.00","0.00"
"14:59:59","85","60.5","43.8","30.07","315","2.3","8.4","0.00","0.00"
"15:04:57","84.6","61.4","45.9","30.07","303","2.5","6","0.00","0.00"
"15:09:57","85.1","62.3","46.5","30.07","276","3.2","8.4","0.00","0.00"
"15:14:58","85.2","62.1","46","30.07","232","2.8","7.2","0.00","0.00"
"15:19:59","84.9","60.6","44.2","30.07","270","1.3","7.2","0.00","0.00"
"15:24:55","85.5","59.6","41.7","30.07","337","2.3","6.9","0.00","0.00"
"15:29:56","85.6","61.1","43.9","30.07","314","2.2","6","0.00","0.00"
"15:34:56","85","60.3","43.5","30.06","206","3.1","6","0.00","0.00"
"15:39:57","84.5","59.8","43.5","30.06","239","2.2","5.8","0.00","0.00"
"15:44:57","84.6","60","43.5","30.06","253","2.1","4.8","0.00","0.00"
"15:49:57","85.1","60.6","43.8","30.06","355","1.3","4.6","0.00","0.00"
"15:54:58","85.4","61.4","44.5","30.06","294","1.8","6","0.00","0.00"
"15:59:58","85.5","58.9","40.7","30.06","301","2.1","4.8","0.00","0.00"
"16:04:59","85.7","59.4","41.2","30.05","332","2.2","4.8","0.00","0.00"
"16:09:56","86.1","60.2","41.8","30.05","287","2.7","7.2","0.00","0.00"
"16:14:57","86","60.4","42.3","30.05","249","2.4","6","0.00","0.00"
"16:19:57","86.1","61.2","43.2","30.05","227","2.7","7.2","0.00","0.00"
"16:24:57","86","60.9","43","30.05","303","3.1","8.4","0.00","0.00"
"16:29:58","86.1","60","41.6","30.05","299","2.8","7.2","0.00","0.00"
"16:34:59","86.4","61.4","43.2","30.04","234","3.1","7.2","0.00","0.00"
"16:39:56","86.4","60.5","41.9","30.04","203","3.8","10.8","0.00","0.00"
"16:44:56","86.5","62.3","44.5","30.04","233","2.7","6","0.00","0.00"
"16:49:56","86.6","60.6","41.8","30.04","209","3.3","7.2","0.00","0.00"
"16:54:57","86.5","60.2","41.3","30.04","185","3.9","8.4","0.00","0.00"
"16:59:58","86.3","58.3","38.9","30.04","192","3.9","10.8","0.00","0.00"
"17:04:56","86.2","56.8","36.8","30.04","224","1.4","4.8","0.00","0.00"
"17:09:57","86.1","55.8","35.9","30.04","346","2.1","4.8","0.00","0.00"
"17:14:58","85.9","55.4","35.5","30.04","230","3","6","0.00","0.00"
"17:19:58","85.6","55.2","35.6","30.04","193","3","6","0.00","0.00"
"17:24:59","84.7","53.3","34.1","30.04","212","3.2","9.6","0.00","0.00"
"17:29:56","83.7","52","33.5","30.05","198","2.2","3.6","0.00","0.00"
"17:34:57","83.1","52.6","35","30.05","193","1.7","3.6","0.00","0.00"
"17:39:58","82.9","52.9","35.7","30.05","193","1.6","3.5","0.00","0.00"
"17:44:59","83","55.1","38.5","30.05","193","0.9","2.4","0.00","0.00"
"17:49:56","83.2","56.2","39.8","30.05","203","0.8","3.6","0.00","0.00"
"17:54:58","83.8","56.1","39","30.05","226","1.8","4.8","0.00","0.00"
"17:59:59","84.2","55.4","37.4","30.05","219","1.7","4.8","0.00","0.00"
"18:04:57","84.6","53.3","34.2","30.04","284","0.9","3.6","0.00","0.00"
"18:09:58","85","53.5","34","30.04","256","1.4","3.6","0.00","0.00"
"18:14:59","85.1","53.8","34.3","30.04","281","1.1","3.6","0.00","0.00"
"18:19:56","85.1","55","35.8","30.04","223","1.9","4.8","0.00","0.00"
"18:24:57","84.8","53.7","34.5","30.04","192","2.9","6","0.00","0.00"
"18:29:58","84.3","54.5","36.1","30.04","192","2.2","4.8","0.00","0.00"
"18:34:59","83.8","53.6","35.5","30.03","196","2.2","4.8","0.00","0.00"
"18:39:57","83.2","52","34.1","30.03","209","2.4","6","0.00","0.00"
"18:44:57","83","51.9","34.3","30.03","200","1.8","4.8","0.00","0.00"
"18:49:57","82.9","53.2","36","30.03","150","1.1","3.6","0.00","0.00"
"18:54:59","82.6","52.6","35.5","30.03","117","1","2.4","0.00","0.00"
"18:59:56","82.4","54.5","38.4","30.03","117","1","2.4","0.00","0.00"
"19:04:58","81.9","56.5","41.9","30.03","123","1.4","3.6","0.00","0.00"
"19:09:59","81.4","55.2","40.7","30.03","163","0.7","3.5","0.00","0.00"
"19:14:57","81","55.5","41.6","30.03","200","0","1.2","0.00","0.00"
"19:19:59","80.7","56.4","43.4","30.03","200","0","0","0.00","0.00"
"19:24:57","80","56.6","44.7","30.03","200","0.1","1.2","0.00","0.00"
"19:29:57","79.1","56.4","45.8","30.03","200","0","0","0.00","0.00"
"19:34:57","78.2","56.5","47.2","30.03","200","0","0","0.00","0.00"
"19:39:57","77.5","55.7","47.1","30.03","179","0","0","0.00","0.00"
"19:44:56","76.8","55.4","47.7","30.04","173","0","1.2","0.00","0.00"
"19:49:56","76.1","56.1","50","30.04","173","0.3","1.2","0.00","0.00"
"19:54:56","75.6","56.8","52.2","30.04","173","0","1.2","0.00","0.00"
"19:59:59","74.9","55.9","51.7","30.04","173","0","0","0.00","0.00"
"20:04:56","74.3","56.5","53.9","30.04","173","0","0","0.00","0.00"
"20:09:56","73.7","57","56","30.04","173","0","0","0.00","0.00"
"20:14:59","73.1","57.2","57.5","30.04","141","0","1.2","0.00","0.00"
"20:19:56","72.5","57.5","59.4","30.04","24","0","0","0.00","0.00"
"20:24:57","71.8","56.9","59.2","30.04","24","0","0","0.00","0.00"
"20:29:58","71.4","57.1","60.9","30.04","24","0","0","0.00","0.00"
"20:34:58","71","57","61.2","30.04","24","0","0","0.00","0.00"
"20:39:56","70.8","57.3","62.5","30.04","24","0","0","0.00","0.00"
"20:44:56","70.5","58.1","65","30.04","24","0.2","1.2","0.00","0.00"
"20:49:56","70.3","58.6","66.5","30.04","24","0.2","1.2","0.00","0.00"
"20:54:56","70.1","58.6","66.9","30.04","24","0.1","1.2","0.00","0.00"
"20:59:56","69.8","58.1","66.3","30.04","24","0","0","0.00","0.00"
"21:04:57","69.6","58.3","67.4","30.04","24","0","0","0.00","0.00"
"21:09:57","69.3","58.3","68","30.04","24","0","0","0.00","0.00"
"21:14:59","69","58.3","68.7","30.05","24","0","0","0.00","0.00"
"21:19:59","68.8","58.3","69.3","30.05","24","0","0","0.00","0.00"
"21:24:59","68.6","58.7","70.8","30.05","24","0.3","1.2","0.00","0.00"
"21:29:59","68.5","58.7","71.1","30.05","24","0.2","1.2","0.00","0.00"
"21:34:59","68.3","58.4","70.7","30.05","24","0","1.2","0.00","0.00"
"21:39:56","68.1","58.3","71","30.05","24","0","0","0.00","0.00"
"21:44:56","67.8","58.4","72","30.05","24","0","0","0.00","0.00"
"21:49:56","67.6","58.2","72","30.05","24","0","0","0.00","0.00"
"21:54:57","67.3","58.2","72.6","30.05","24","0","0","0.00","0.00"
"21:59:56","67.1","58.4","73.5","30.05","24","0","0","0.00","0.00"
"22:04:57","66.9","58","73","30.05","24","0","0","0.00","0.00"
"22:09:57","66.7","58.1","74","30.05","24","0","0","0.00","0.00"
"22:14:58","66.5","58.2","74.7","30.05","24","0","0","0.00","0.00"
"22:19:58","66.3","58.4","75.7","30.05","24","0","1.2","0.00","0.00"
"22:24:58","66","58.6","77","30.05","24","0","1.2","0.00","0.00"
"22:29:57","65.8","58.7","78","30.05","24","0","0","0.00","0.00"
"22:34:57","65.6","58.6","78","30.05","24","0","1.2","0.00","0.00"
"22:39:58","65.6","58.7","78.2","30.05","24","0","0","0.00","0.00"
"22:44:59","65.5","58.9","79.2","30.05","24","0","0","0.00","0.00"
"22:49:59","65.3","59","80","30.05","24","0","0","0.00","0.00"
"22:54:56","65.1","59","80.7","30.05","24","0","0","0.00","0.00"
"22:59:57","65","59.2","81.7","30.05","24","0","0","0.00","0.00"
"23:04:58","64.8","59.2","82","30.05","24","0","1.2","0.00","0.00"
"23:09:58","64.7","59.2","82.4","30.05","24","0.1","1.2","0.00","0.00"
"23:14:58","64.7","59.4","83.2","30.05","24","0.3","1.2","0.00","0.00"
"23:19:58","64.7","59.4","82.8","30.04","24","0","0","0.00","0.00"
"23:24:59","64.8","59.2","82","30.04","24","0","0","0.00","0.00"
"23:29:59","64.8","59.2","82","30.05","24","0","0","0.00","0.00"
"23:34:58","64.7","58.8","81.2","30.05","24","0","0","0.00","0.00"
"23:39:59","64.6","58.7","81.1","30.05","24","0","0","0.00","0.00"
"23:44:59","64.4","58.8","82","30.05","24","0","0","0.00","0.00"
"23:49:58","64.3","58.7","82","30.04","24","0","0","0.00","0.00"
